Location: Alpha Ridge Park
(39.3209°N, 76.9128°W)
Time: 11:59:35
(UTC-04:00)

Courier 1B - Visible Passes

Search period start: 21 May 2019 00:00
Search period end: 31 May 2019 00:00
Orbit: 962 x 1209 km, 28.3° (Epoch: 20 May)

Date Brightness Start Highest point End Pass type
(mag) Time Alt. Az. Time Alt. Az. Time Alt. Az.
27 May 9.3 04:55:13 10° SSW 04:59:18 17° SSE 05:03:18 10° ESE visible
28 May 9.4 04:03:19 11° S 04:05:46 13° SSE 04:08:51 10° SE visible
29 May 9.7 03:12:40 10° SSE 03:12:40 10° SSE 03:13:04 10° SE visible
29 May 8.9 05:00:05 10° SW 05:05:22 24° SSE 05:10:29 10° ESE visible
30 May 9.1 04:08:53 16° SSW 04:11:48 21° SSE 04:16:35 10° ESE visible
